Temperature
-0 -0 -0 0 0 -0 -0 0 -0 -1 -1 -0 0 0 0 0 1 1 1 1 2 2 2 2 2 2 2 3 3 3 3 3 3 3 3 3 4 4
-1 -1 -1 -1 -1 -1 -1 -1 -1 -1 -1 -1 -0 -0 -0 -0 0 0 0 1 1 1 1 1 1 1 1 2 2 2 2 2 2 2 2 3 3 3
-2 -2 -1 -1 -1 -1 -1 -2 -2 -2 -2 -1 -1 -1 -1 -1 -1 -0 -0 -0 0 0 0 0 0 1 1 1 1 1 1 1 1 2 2 2 2 2
-2 -2 -2 -2 -2 -2 -2 -2 -2 -2 -2 -2 -2 -2 -1 -1 -1 -1 -1 -1 -1 -1 -0 -0 -0 -0 -0 0 0 0 1 1 1 1 1 1 1 2
-2 -3 -3 -3 -3 -3 -3 -3 -3 -3 -3 -3 -3 -2 -2 -2 -2 -2 -2 -2 -1 -1 -1 -1 -1 -1 -1 -1 -0 -0 -0 -0 -0 -0 0 0 0 1
-3 -3 -3 -3 -3 -3 -3 -3 -3 -3 -3 -3 -3 -3 -3 -3 -3 -3 -2 -2 -2 -2 -2 -2 -1 -1 -1 -1 -1 -1 -1 -1 -1 -1 -1 -1 -1 -0
-4 -4 -4 -4 -4 -4 -4 -4 -4 -4 -4 -4 -4 -4 -3 -3 -3 -4 -4 -3 -3 -3 -2 -2 -2 -2 -2 -1 -1 -1 -1 -1 -2 -2 -2 -1 -1 -1
-5 -5 -5 -4 -4 -4 -4 -4 -4 -4 -4 -4 -4 -4 -4 -4 -4 -4 -4 -4 -4 -4 -3 -3 -3 -2 -2 -2 -2 -2 -2 -2 -2 -2 -2 -2 -2 -2
-5 -5 -5 -5 -5 -5 -5 -5 -5 -5 -5 -5 -5 -4 -4 -4 -4 -4 -4 -4 -4 -4 -4 -4 -3 -3 -3 -3 -3 -3 -2 -3 -3 -3 -3 -3 -3 -3
-6 -6 -6 -6 -5 -5 -5 -5 -5 -5 -5 -5 -5 -5 -5 -5 -5 -5 -5 -5 -5 -5 -5 -5 -4 -4 -4 -3 -3 -3 -3 -3 -4 -3 -3 -3 -3 -3
-6 -6 -6 -6 -6 -6 -6 -6 -6 -6 -6 -6 -6 -6 -6 -6 -5 -5 -6 -6 -6 -5 -5 -5 -5 -5 -4 -4 -4 -4 -4 -4 -4 -4 -4 -4 -4 -4
-7 -7 -7 -7 -7 -7 -7 -7 -7 -6 -6 -6 -6 -6 -6 -6 -6 -6 -6 -6 -6 -6 -6 -6 -6 -6 -5 -5 -4 -5 -5 -5 -5 -5 -5 -5 -5 -5
-7 -7 -7 -7 -7 -7 -7 -7 -7 -7 -7 -7 -7 -7 -7 -7 -7 -6 -7 -7 -7 -7 -6 -6 -6 -6 -6 -6 -5 -5 -5 -5 -5 -5 -5 -5 -5 -5
-8 -8 -8 -8 -8 -8 -8 -8 -8 -7 -7 -7 -7 -7 -7 -7 -7 -7 -7 -7 -7 -7 -7 -7 -7 -7 -7 -7 -7 -6 -6 -6 -6 -6 -6 -6 -6 -6
-8 -8 -8 -8 -8 -8 -8 -8 -8 -8 -8 -8 -8 -8 -8 -8 -8 -8 -8 -8 -8 -8 -7 -7 -7 -7 -8 -8 -7 -7 -7 -7 -6 -6 -6 -6 -6 -7
-9 -8 -8 -8 -8 -9 -9 -9 -9 -8 -8 -8 -8 -8 -8 -8 -8 -8 -8 -8 -8 -8 -8 -8 -8 -8 -8 -8 -8 -7 -7 -8 -7 -7 -7 -7 -7 -7
-9 -9 -9 -9 -9 -9 -9 -9 -9 -9 -9 -9 -9 -9 -9 -9 -9 -9 -9 -9 -9 -9 -9 -9 -9 -9 -9 -9 -8 -8 -8 -8 -8 -8 -8 -8 -8 -8
-9 -9 -9 -9 -9 -9 -9 -9 -9 -9 -9 -9 -9 -9 -10 -10 -10 -10 -10 -10 -10 -10 -10 -10 -10 -10 -9 -9 -9 -9 -8 -8 -8 -8 -9 -8 -8 -8
-10 -9 -10 -10 -10 -10 -10 -10 -10 -10 -10 -10 -10 -10 -10 -10 -10 -10 -10 -10 -10 -10 -10 -11 -11 -11 -11 -10 -9 -9 -9 -9 -9 -9 -9 -9 -9 -8
-10 -10 -10 -10 -10 -10 -10 -10 -10 -10 -10 -10 -10 -10 -10 -11 -11 -11 -11 -11 -11 -11 -11 -11 -11 -11 -11 -11 -11 -10 -10 -10 -10 -10 -10 -10 -9 -9
-10 -10 -10 -10 -10 -10 -10 -10 -10 -11 -11 -11 -11 -11 -11 -11 -11 -11 -11 -11 -12 -12 -12 -11 -11 -11 -11 -12 -11 -11 -10 -10 -10 -10 -10 -10 -10 -10
-11 -11 -11 -11 -11 -11 -11 -11 -11 -11 -11 -11 -11 -11 -11 -12 -12 -12 -12 -12 -12 -12 -12 -12 -12 -12 -12 -12 -12 -11 -11 -10 -10 -10 -10 -10 -10 -10
-11 -11 -11 -11 -11 -11 -11 -11 -11 -11 -11 -12 -12 -12 -12 -12 -12 -12 -12 -12 -12 -12 -12 -12 -12 -12 -12 -12 -12 -12 -11 -11 -11 -11 -10 -10 -10 -10
Wind_Speed
5 5 4 3 3 3 3 3 4 5 5 4 3 3 4 5 6 7 7 8 9 9 9 9 8 8 8 7 6 6 6 6 6 6 7 8 8 9
4 5 5 4 3 3 3 3 3 5 6 4 3 3 4 6 7 6 7 9 9 9 10 9 9 9 9 8 7 6 6 6 6 7 8 9 9 10
5 6 6 5 5 4 4 4 4 4 6 5 4 3 4 4 5 6 7 8 8 10 10 9 9 8 8 8 7 7 6 6 7 8 9 9 10 10
7 7 7 5 6 5 5 5 5 5 6 7 5 4 5 5 4 4 6 7 7 9 10 10 9 9 9 9 8 7 7 7 7 7 8 9 10 11
7 8 7 7 7 6 6 6 6 5 5 5 6 4 4 4 4 4 5 5 7 8 9 9 9 10 10 10 9 7 7 7 8 8 8 8 9 10
7 7 7 8 8 8 7 7 6 6 5 5 5 4 4 4 4 4 5 4 5 6 7 9 9 10 11 11 10 8 8 8 8 8 8 9 9 9
7 7 8 9 10 9 7 6 6 6 5 6 5 5 5 5 5 4 5 4 5 5 4 5 6 6 8 11 11 9 9 9 9 9 9 9 9 10
7 7 7 8 10 11 12 11 9 8 8 7 7 7 7 6 5 5 5 5 5 3 3 5 4 5 7 8 10 11 10 10 10 9 9 10 10 10
7 7 6 7 8 7 9 10 10 11 11 9 8 8 7 6 6 6 7 7 7 4 4 6 4 6 7 9 11 11 11 10 10 10 10 10 10 10
8 8 8 7 7 7 7 7 7 8 9 8 8 8 8 7 8 7 7 6 5 5 4 5 5 6 7 9 11 12 11 11 11 11 10 10 10 10
8 8 8 8 11 11 7 7 7 7 9 10 11 11 11 11 9 5 5 5 6 5 3 4 4 5 6 6 9 11 10 10 10 11 10 10 10 10
6 8 11 11 12 12 8 7 8 8 6 6 6 7 7 7 9 7 6 6 5 4 3 3 3 3 5 5 5 7 8 10 10 10 11 11 11 8
7 7 8 12 13 12 11 8 10 7 5 5 4 4 4 4 5 6 6 6 6 5 4 3 4 4 4 5 5 6 6 6 7 8 10 11 11 9
7 6 7 12 12 12 10 10 10 8 4 4 4 5 4 4 4 5 5 5 6 7 7 5 4 5 5 6 6 4 5 6 6 6 7 10 10 11
7 10 11 12 11 9 10 10 8 5 4 5 5 5 4 4 4 3 3 4 4 6 7 7 6 5 5 6 6 5 5 5 6 6 6 7 7 7
6 9 11 11 9 8 8 6 5 5 5 5 5 4 3 3 4 4 4 3 3 4 5 6 7 6 6 7 7 7 5 5 5 6 6 7 8 8
5 4 4 4 5 5 5 5 4 5 5 5 5 5 4 4 4 4 3 3 4 5 5 4 5 6 7 7 7 7 6 6 6 6 6 7 7 8
6 5 6 6 6 6 6 6 5 6 6 5 5 5 5 5 5 4 4 4 5 5 5 4 3 4 4 5 9 8 6 6 6 6 6 6 8 8
6 5 6 6 6 6 6 6 6 6 6 6 6 6 6 5 5 5 5 5 5 6 5 4 4 4 5 7 5 7 6 5 5 6 6 7 8 9
5 5 6 6 6 6 6 6 6 6 5 6 6 6 6 6 6 6 6 6 6 6 5 5 5 5 6 7 6 6 9 7 6 7 6 6 8 11
4 5 5 5 6 6 6 6 6 6 6 6 6 6 6 6 6 6 6 8 7 6 6 6 6 7 5 3 5 6 6 9 10 8 7 7 7 7
4 4 5 5 5 6 6 6 6 6 6 6 6 6 6 6 7 7 7 7 6 6 6 5 4 4 4 6 7 8 7 7 8 11 12 11 7 7
4 4 5 5 5 5 5 6 6 6 6 6 6 6 6 6 6 6 7 7 6 6 5 5 4 4 5 6 7 7 8 7 6 6 7 11 13 16
Wind_Direction
227 227 236 243 237 239 232 219 224 248 254 245 245 247 256 287 296 295 290 285 284 284 285 283 291 289 291 272 271 272 273 276 278 278 278 279 282 283
226 223 230 237 235 234 229 233 237 238 252 245 244 260 262 277 284 290 284 280 280 281 280 280 279 286 283 271 257 262 268 270 275 280 284 284 281 283
231 228 233 232 232 230 227 228 236 239 252 267 263 261 255 262 284 283 281 275 272 274 276 274 271 278 280 277 254 255 262 269 272 275 278 282 284 284
227 227 234 234 234 229 226 230 234 235 244 259 267 262 261 247 256 269 278 274 270 271 271 270 270 272 276 279 259 255 260 269 275 277 278 280 281 282
225 225 229 227 234 234 228 231 235 239 242 245 256 259 266 253 253 274 276 275 271 266 267 268 269 273 273 279 263 255 258 262 268 269 273 279 282 282
230 230 227 228 230 232 233 232 231 232 236 238 246 250 254 250 242 257 272 270 275 279 272 272 270 274 273 277 267 255 252 255 260 264 268 272 277 282
231 233 234 235 237 235 236 229 225 228 231 238 241 249 244 238 239 248 265 274 275 273 273 270 270 271 274 271 261 250 248 251 255 259 263 266 273 280
232 237 240 242 245 245 245 241 232 224 223 233 243 237 239 240 240 249 255 270 272 252 256 271 268 275 275 264 255 249 249 252 254 258 262 265 269 274
227 231 239 241 243 242 246 248 249 249 239 234 235 238 237 234 234 245 250 255 261 250 258 265 261 266 275 265 255 251 251 253 255 259 261 263 268 272
229 227 231 236 237 237 236 241 246 250 251 247 242 242 240 229 226 235 246 262 276 258 240 256 256 263 273 269 252 245 247 251 256 258 260 262 266 273
232 228 227 232 238 238 233 238 248 255 258 256 257 254 252 250 237 226 234 247 267 265 235 241 263 277 273 265 252 242 244 249 256 259 261 264 268 272
234 232 234 235 237 237 228 228 240 246 246 253 256 258 252 249 244 226 221 234 254 264 241 232 256 279 279 263 238 238 245 251 255 256 261 266 268 272
233 234 235 238 240 240 240 235 241 242 235 235 241 246 248 246 236 229 223 224 237 255 251 251 262 260 260 276 264 239 233 246 253 256 260 263 264 268
233 234 234 237 241 242 244 244 247 248 232 228 234 237 240 247 243 231 238 241 242 252 248 245 256 254 259 271 269 246 229 242 247 251 258 260 261 265
236 235 236 238 240 243 246 246 244 240 224 227 234 237 237 238 240 235 240 249 264 265 254 255 252 253 253 261 265 256 261 248 242 241 249 253 255 260
242 240 240 242 240 238 239 244 236 227 222 225 230 235 231 230 241 235 243 247 262 276 271 265 257 246 255 260 258 256 248 242 237 244 253 258 262 257
232 237 235 230 230 229 228 230 228 223 228 223 223 227 230 234 244 236 236 245 251 261 274 281 281 271 262 258 257 250 249 249 241 243 251 262 262 258
235 231 231 228 227 225 225 226 224 222 221 221 220 223 226 229 240 240 231 235 246 252 260 263 278 296 297 277 245 246 249 248 246 245 243 253 262 259
241 233 231 226 226 225 224 224 227 224 218 218 221 221 222 226 232 236 231 234 244 249 250 245 244 252 268 278 274 247 247 250 248 253 246 251 259 262
233 233 230 227 225 226 225 225 225 222 219 220 220 220 218 222 229 234 229 230 240 250 254 245 238 238 242 260 275 276 260 247 246 252 260 266 264 269
240 238 237 232 230 227 225 224 221 220 219 219 219 219 219 219 228 233 233 241 245 245 247 252 254 268 267 270 271 272 265 259 254 253 257 265 271 269
245 243 243 237 231 227 224 220 221 221 218 219 221 221 220 220 226 232 232 234 238 243 251 259 259 264 253 252 260 271 280 281 278 277 271 262 254 251
249 247 246 238 231 227 222 219 219 224 220 218 221 222 220 223 227 231 231 233 235 241 245 253 259 260 257 251 257 265 271 277 280 287 287 284 277 273
Height
1491 1493 1494 1495 1496 1497 1498 1499 1500 1497 1496 1497 1498 1499 1501 1502 1502 1503 1503 1503 1504 1504 1504 1505 1504 1505 1505 1506 1506 1507 1507 1508 1508 1509 1509 1510 1510 1511
1486 1487 1488 1489 1490 1491 1492 1493 1494 1494 1492 1491 1492 1494 1495 1496 1497 1497 1497 1498 1498 1499 1499 1499 1499 1500 1500 1500 1501 1501 1502 1502 1502 1503 1503 1504 1504 1505
1480 1481 1482 1483 1484 1485 1486 1487 1488 1488 1487 1486 1488 1489 1489 1490 1491 1491 1492 1492 1492 1493 1493 1493 1494 1494 1495 1495 1496 1496 1496 1496 1497 1497 1498 1498 1498 1499
1473 1475 1476 1477 1478 1479 1480 1481 1482 1483 1483 1481 1482 1483 1483 1484 1485 1485 1486 1486 1487 1487 1487 1487 1488 1488 1489 1489 1490 1490 1490 1491 1491 1492 1492 1492 1493 1493
1467 1468 1470 1471 1472 1473 1474 1475 1476 1477 1477 1477 1476 1477 1478 1479 1479 1479 1480 1480 1481 1481 1481 1481 1482 1482 1483 1483 1484 1484 1484 1485 1485 1486 1486 1487 1487 1487
1461 1462 1463 1464 1465 1467 1468 1468 1470 1470 1471 1471 1471 1471 1472 1473 1474 1474 1474 1474 1474 1475 1475 1475 1476 1477 1477 1477 1478 1478 1478 1479 1479 1480 1480 1481 1481 1481
1454 1456 1457 1458 1459 1461 1462 1462 1464 1464 1465 1465 1465 1466 1466 1467 1468 1468 1469 1468 1468 1469 1469 1470 1470 1470 1470 1470 1471 1471 1472 1473 1473 1474 1474 1475 1475 1475
1448 1449 1451 1452 1452 1454 1455 1456 1458 1458 1458 1459 1459 1459 1460 1462 1462 1463 1463 1463 1462 1463 1463 1463 1463 1462 1462 1463 1463 1465 1466 1466 1467 1468 1468 1468 1469 1469
1442 1443 1444 1445 1446 1447 1448 1450 1451 1452 1453 1454 1453 1453 1454 1456 1457 1457 1457 1457 1456 1457 1457 1455 1456 1456 1456 1457 1458 1459 1459 1460 1461 1461 1462 1462 1462 1463
1436 1437 1438 1439 1440 1441 1442 1443 1444 1445 1446 1447 1447 1448 1449 1451 1452 1452 1452 1451 1451 1451 1452 1450 1450 1450 1450 1450 1451 1452 1453 1453 1454 1455 1455 1455 1456 1456
1430 1431 1432 1433 1434 1436 1436 1436 1437 1438 1439 1440 1441 1442 1443 1444 1445 1446 1446 1446 1445 1445 1446 1445 1443 1443 1442 1442 1443 1445 1446 1446 1447 1448 1448 1449 1449 1449
1423 1424 1426 1427 1428 1429 1430 1430 1430 1431 1433 1433 1434 1435 1436 1437 1438 1439 1439 1440 1439 1438 1439 1439 1438 1438 1436 1435 1436 1438 1439 1439 1440 1441 1441 1442 1442 1442
1417 1418 1419 1420 1422 1423 1424 1424 1425 1426 1426 1427 1428 1428 1429 1430 1431 1432 1433 1433 1433 1432 1433 1433 1432 1432 1431 1429 1429 1430 1431 1432 1433 1433 1434 1434 1435 1435
1411 1412 1413 1414 1415 1416 1417 1418 1419 1420 1421 1421 1421 1422 1422 1423 1424 1425 1425 1426 1426 1426 1426 1427 1426 1425 1425 1423 1421 1422 1424 1425 1425 1426 1426 1427 1427 1427
1405 1406 1407 1408 1409 1410 1411 1412 1413 1414 1414 1414 1415 1415 1416 1417 1418 1419 1419 1419 1419 1419 1419 1419 1419 1419 1419 1417 1415 1415 1415 1416 1418 1418 1419 1419 1419 1419
1399 1400 1401 1402 1403 1403 1404 1405 1406 1407 1408 1408 1409 1409 1410 1411 1411 1412 1412 1412 1412 1412 1412 1413 1413 1413 1411 1410 1409 1408 1408 1409 1410 1411 1411 1411 1411 1411
1392 1393 1394 1395 1395 1396 1397 1398 1399 1400 1401 1402 1403 1403 1404 1404 1405 1406 1406 1405 1405 1404 1404 1405 1406 1406 1405 1404 1402 1402 1401 1402 1403 1403 1403 1403 1403 1404
1387 1386 1387 1388 1388 1389 1390 1391 1392 1393 1394 1395 1396 1397 1397 1398 1398 1399 1399 1399 1399 1398 1398 1398 1399 1399 1398 1397 1397 1396 1395 1395 1396 1397 1396 1395 1394 1395
1380 1379 1380 1380 1381 1382 1383 1384 1385 1386 1387 1388 1389 1390 1391 1391 1391 1392 1392 1392 1392 1392 1392 1392 1393 1392 1391 1389 1389 1392 1390 1389 1389 1389 1389 1388 1386 1386
1372 1373 1373 1374 1374 1375 1376 1377 1378 1379 1380 1381 1382 1383 1384 1384 1385 1385 1385 1385 1386 1385 1385 1386 1386 1386 1385 1384 1382 1382 1384 1383 1382 1381 1381 1381 1380 1380
1366 1366 1366 1367 1368 1368 1369 1370 1371 1371 1372 1374 1375 1376 1377 1378 1378 1378 1379 1379 1379 1379 1379 1379 1380 1381 1380 1379 1377 1375 1376 1377 1376 1375 1374 1373 1371 1370
1359 1359 1360 1360 1361 1361 1362 1363 1363 1364 1365 1366 1368 1369 1370 1371 1371 1372 1372 1373 1373 1373 1373 1373 1374 1374 1374 1373 1370 1369 1368 1368 1369 1369 1368 1367 1364 1361
1353 1353 1353 1353 1354 1354 1355 1356 1356 1357 1358 1360 1361 1362 1363 1364 1365 1366 1366 1367 1367 1367 1367 1367 1368 1368 1368 1367 1365 1363 1362 1361 1360 1360 1359 1358 1358 1357